Location: Unspecified
(47.9110°N, 14.3980°E)
Time: 06:28:03
(UTC+00:00)

Meteor 1-19 Rocket - Pass Details

Date: 06 August 2020
Orbit: 811 x 924 km, 81.2° (Epoch: 23 September)

Event Time Altitude Azimuth Distance (km) Brightness Sun altitude
Rises 20:45:52 0° 350° (N) 3,352 8.5 -18.3°
Reaches altitude 10° 20:48:18 10° 355° (N) 2,411 7.5 -18.5°
Maximum altitude 20:53:41 61° 75° (ENE) 924 4.3 -19.0°
Enters shadow 20:55:45 36° 139° (SE) 1,264 4.6 -19.2°
